User: anonymous   Login
Location: Unspecified
(0.0000°N, 0.0000°E)
Time: 12:44:10
(UTC+02:00)
Language:

GPS 2-05 Rocket1 - Orbit

View from above orbital plane
View from above orbital plane
View from above satellite
View from above satellite

Ground track
Ground track

The orbit data is extracted from the following two-line orbital elements,

1 20362U 89097B   16204.50725297  .00006077  00000-0  11448-3 0  9997
2 20362  35.6076 215.2885 0066583 162.8967 331.4976 15.45460989448662
Epoch (UTC): 22 July 2016 12:10:26
Eccentricity: 0.0066583
inclination: 35.6076°
perigee height: 385 km
apogee height: 475 km
right ascension of ascending node: 215.2885°
argument of perigee: 162.8967°
revolutions per day: 15.45460989
mean anomaly at epoch: 331.4976°
orbit number at epoch: 44866

The dashed part of the orbit path shows where the satellite is in the earth's shadow,  

DLR